Wind_Speed
29 33 38 43 48 58 65 65 68 67 64 55 55 62 54 57 44 42 41 38 35 33 27 24 21 18 17 17 14 10 8 9 8 6 4 3 2 3 3 4 3 2 3 3 3 1 2 7 6 2 11 10 2 1
26 29 38 37 49 53 50 51 52 56 61 55 56 54 46 48 49 44 42 37 34 31 23 27 20 22 19 16 14 12 10 6 4 4 3 2 5 8 6 4 5 3 3 3 2 3 4 6 6 3 3 6 6 8
21 29 38 30 25 31 24 20 23 40 43 48 60 56 54 48 42 45 40 34 33 31 28 23 24 22 20 18 15 12 10 10 9 9 9 7 6 6 5 5 6 5 6 6 6 2 5 7 8 8 10 13 16 13
25 30 34 31 27 14 5 4 22 20 33 43 49 50 46 45 40 39 38 34 33 30 26 21 25 21 19 18 15 12 11 9 9 9 10 10 10 8 9 10 12 13 15 11 9 10 14 16 18 19 19 18 17 17
20 26 29 27 22 15 13 13 27 29 34 38 50 47 45 40 35 41 31 32 32 28 18 24 18 19 17 17 15 12 10 8 9 11 13 14 16 13 15 17 15 7 8 13 9 8 11 13 14 15 16 18 18 17
16 21 25 30 21 13 22 23 28 36 34 36 35 45 48 32 36 39 35 32 30 24 21 12 20 16 15 14 12 11 13 14 14 16 18 19 18 14 11 12 11 6 4 10 11 13 16 15 15 16 16 17 17 17
17 20 23 28 30 9 25 32 36 42 39 34 31 29 34 36 28 36 31 34 24 24 21 15 15 18 16 15 16 16 17 19 21 23 24 24 24 22 26 27 23 17 16 18 21 19 14 14 18 18 17 16 15 16
17 19 19 21 29 21 8 29 32 37 35 34 33 29 32 27 27 23 22 22 21 20 18 11 10 12 10 10 12 15 18 20 26 28 30 29 29 28 22 24 24 19 16 17 16 12 14 16 16 16 16 15 15 16
13 14 16 17 18 18 3 17 21 35 28 28 25 29 34 29 26 26 25 24 26 21 14 16 15 12 13 13 10 13 16 20 21 25 25 22 24 15 17 13 17 17 16 13 13 12 16 14 13 13 14 15 16 17
12 13 13 14 15 16 7 11 19 27 35 32 29 34 33 29 30 29 19 13 16 21 22 22 19 19 15 14 11 9 9 9 8 14 15 20 29 29 27 27 26 24 22 20 21 21 19 13 14 16 18 19 18 17
12 12 12 12 11 12 13 2 15 27 40 38 41 35 31 32 24 20 16 11 11 14 20 28 26 23 19 13 11 8 7 6 6 10 12 7 10 14 15 16 17 18 19 18 17 14 11 13 15 16 15 14 12 12
11 10 10 10 9 8 9 10 5 18 24 33 31 30 30 27 15 14 18 13 11 18 18 18 23 23 22 19 17 12 14 7 8 9 8 6 11 12 11 12 11 10 10 10 10 10 11 12 12 13 12 11 11 10
9 9 9 10 9 7 5 6 7 10 14 16 17 19 13 11 9 11 12 9 14 15 20 23 22 17 19 22 16 12 12 13 12 9 8 9 9 10 13 11 10 11 11 10 8 10 12 11 11 10 9 9 9 9
7 9 10 11 11 9 6 3 3 4 16 12 9 6 7 7 10 10 19 20 20 19 15 14 16 17 20 19 13 9 11 8 8 7 8 13 14 14 11 9 8 8 7 6 9 10 10 10 11 11 12 12 13 14
6 8 9 11 11 10 7 3 4 6 2 3 4 4 6 8 12 13 16 15 13 14 14 15 20 23 16 11 10 9 9 8 8 7 12 15 16 14 12 11 11 9 7 9 9 11 12 13 14 15 17 18 18 18
7 8 9 9 10 10 8 4 4 9 9 3 3 7 9 8 11 11 13 15 15 12 12 17 10 9 9 7 9 8 7 6 9 11 12 13 11 10 8 7 6 7 8 10 12 14 16 17 18 17 15 16 17 18
8 10 11 11 11 10 8 6 7 8 7 5 7 9 11 10 8 6 5 6 9 8 11 6 4 4 6 5 5 7 7 9 11 13 12 10 9 8 9 10 10 10 12 13 14 14 15 16 17 18 20 24 26 27
8 9 11 10 10 9 8 5 5 5 7 9 11 9 9 11 10 8 7 8 7 7 8 10 7 7 3 5 6 7 9 11 15 16 16 15 13 12 10 10 12 14 15 16 17 19 22 25 27 29 28 27 27 28
7 8 8 9 10 9 7 7 6 6 6 5 7 10 10 9 8 7 7 7 7 6 3 2 1 1 6 11 11 9 11 13 13 11 10 11 12 15 17 19 22 24 27 28 29 29 30 30 28 26 26 26 27 26
6 7 7 8 10 9 5 5 9 8 9 8 3 5 6 6 6 6 5 5 5 4 2 2 5 5 7 8 8 10 9 13 15 19 20 21 21 22 25 26 26 27 27 27 26 27 28 27 27 27 26 24 23 23
5 6 8 10 9 6 1 2 3 3 4 4 5 4 6 4 6 5 6 6 5 3 3 5 7 9 11 14 16 18 19 20 20 21 22 23 23 22 25 25 24 23 22 22 22 22 22 22 22 22 21 20 19 21
7 9 11 10 9 7 3 5 3 4 5 3 3 2 4 8 9 8 8 8 9 8 9 9 11 14 17 19 20 20 21 21 22 21 21 20 20 21 21 22 23 23 22 21 21 20 19 19 19 19 21 23 25 25
10 13 11 10 8 4 4 6 8 9 8 10 10 9 9 10 10 11 12 13 13 14 15 17 18 20 21 22 22 22 21 20 19 20 20 21 21 22 21 21 20 19 18 17 18 18 19 20 21 22 24 25 25 26
9 12 13 6 5 5 6 6 8 9 10 9 8 7 7 9 10 12 12 12 12 13 13 13 13 13 14 15 14 15 15 16 17 18 19 19 19 18 17 17 16 17 18 19 20 21 21 23 24 26 27 28 28 29
14 9 5 5 5 4 4 4 2 4 4 3 4 5 5 3 3 5 6 2 2 3 4 5 7 9 10 11 12 12 13 13 14 13 13 13 13 13 14 15 17 19 21 22 23 24 25 26 27 28 29 30 30 30
5 4 3 3 3 3 2 2 1 2 3 3 2 2 1 3 4 4 4 4 5 4 4 3 2 2 3 4 5 6 6 6 5 6 8 10 12 14 15 17 19 21 21 22 23 23 24 25 25 26 26 27 28 28
5 5 6 7 8 9 9 9 9 9 8 4 5 7 5 3 4 5 5 5 4 3 3 2 2 1 2 2 2 2 3 6 8 9 11 12 14 15 16 18 19 20 21 23 24 25 25 26 27 28 27 27 28 28
5 8 9 9 10 11 12 12 12 9 7 9 8 5 4 4 2 3 6 8 7 5 4 7 6 4 4 4 4 5 7 8 9 11 12 14 15 17 18 20 21 20 19 20 21 22 23 24 24 24 23 23 23 23
6 8 10 8 8 8 8 8 8 9 7 7 6 8 5 3 3 9 11 9 8 10 8 5 3 3 4 5 7 9 11 12 14 16 17 18 19 20 21 20 19 19 18 18 19 19 19 19 19 19 18 18 17 17
7 10 13 10 3 4 5 7 7 8 11 9 6 5 6 5 10 14 12 9 9 9 6 4 5 7 10 12 13 14 15 16 17 16 15 15 16 16 16 16 16 16 16 16 16 16 16 15 13 13 11 11 11 11
7 10 13 11 6 2 2 2 3 8 11 10 10 9 8 11 16 15 12 10 8 6 5 2 4 8 11 13 14 16 18 19 20 18 17 17 16 14 14 15 15 15 15 14 13 13 12 11 10 9 8 7 6 6
7 7 10 9 8 9 8 5 2 3 6 10 11 11 13 18 17 14 11 8 6 4 3 3 4 7 10 12 15 17 18 20 20 19 17 18 15 14 13 13 12 12 12 12 12 12 11 11 10 9 8 8 7 7
3 3 4 5 7 9 9 10 10 8 4 7 10 16 20 18 14 12 9 6 5 3 3 4 6 8 10 12 15 18 20 22 23 22 19 17 14 12 11 11 11 10 10 11 12 11 11 11 11 10 9 8 7 7
Wind_Direction
290 294 295 296 291 281 274 266 257 247 245 237 226 210 216 212 203 212 214 216 220 226 226 229 232 222 222 225 222 223 233 243 239 238 242 260 286 318 322 321 308 311 334 345 6 13 52 137 133 75 128 137 140 174
299 305 307 304 303 293 286 276 257 243 229 226 215 207 214 196 199 210 212 212 215 218 219 224 223 220 219 215 218 219 220 215 211 215 223 270 291 296 292 301 311 317 336 326 4 77 107 149 139 139 230 255 269 282
299 310 322 310 314 296 292 299 228 203 210 209 203 206 183 193 199 203 208 207 210 214 218 224 218 217 217 221 216 217 224 234 246 255 268 271 263 274 284 284 286 297 298 283 298 306 220 228 255 265 268 275 288 287
301 307 324 307 355 293 279 285 181 186 195 199 196 172 183 185 201 193 201 204 209 211 213 219 214 207 208 212 217 218 224 237 249 256 263 268 273 279 274 279 285 289 290 285 273 263 270 262 266 273 276 278 280 282
291 309 324 327 337 116 155 175 181 183 171 168 169 173 179 198 189 193 198 204 203 199 201 213 203 200 200 204 214 220 222 241 265 272 275 274 274 274 286 287 294 286 279 271 268 276 282 277 272 269 269 269 271 274
294 311 319 340 319 78 152 160 171 161 162 166 184 181 190 193 183 190 191 203 213 198 203 187 208 206 202 200 203 223 257 265 268 280 280 275 270 265 271 274 286 261 250 236 263 284 285 279 285 286 283 279 280 280
321 321 323 332 347 341 144 159 171 168 168 174 183 185 185 202 206 180 196 203 205 197 210 224 235 224 225 235 247 253 262 267 270 271 268 266 262 268 270 271 273 263 269 271 278 283 265 277 284 283 283 283 282 281
338 342 341 341 340 349 154 177 181 169 177 179 169 179 185 187 188 191 204 209 214 207 212 220 218 213 225 229 251 265 269 268 264 262 264 264 266 266 263 270 273 272 267 269 274 260 275 284 279 278 280 283 285 283
335 337 339 346 349 338 333 162 196 173 166 157 173 184 194 203 202 201 204 209 207 210 218 230 233 253 246 260 267 275 268 264 263 258 260 262 256 245 251 257 268 272 266 255 241 265 295 285 272 274 278 282 283 283
342 343 343 345 350 354 336 182 162 184 172 170 174 180 184 200 209 196 213 212 215 229 243 245 249 250 263 273 269 258 262 250 252 263 263 249 250 252 257 262 265 260 264 264 253 277 287 271 279 282 281 279 277 275
344 348 348 353 351 355 0 280 193 164 169 177 174 178 188 193 199 192 191 193 211 218 240 245 250 260 261 251 227 226 243 249 252 248 233 239 243 257 260 264 264 264 266 260 269 255 260 277 287 289 286 279 273 273
350 354 354 355 1 3 1 8 192 200 183 174 172 167 166 174 176 179 183 183 198 216 229 232 242 241 241 235 228 235 227 231 236 220 221 228 232 238 253 260 257 250 243 240 239 250 276 291 290 289 287 283 280 279
7 15 18 16 16 15 20 22 24 159 187 193 188 182 184 187 183 177 167 171 202 215 221 224 220 210 225 221 215 211 208 216 219 212 224 232 218 234 241 239 240 239 232 231 251 279 291 279 272 277 282 283 284 284
33 33 29 28 23 25 29 61 66 71 147 126 128 136 172 155 175 172 188 203 213 223 226 213 208 209 209 199 199 196 202 196 205 215 216 225 226 222 224 224 213 206 212 248 265 257 254 254 259 268 275 281 288 290
24 25 24 17 16 21 31 58 139 157 113 126 98 101 105 138 155 162 174 185 196 201 196 193 196 198 199 193 190 191 185 205 206 196 194 199 205 210 202 202 209 217 223 229 239 252 263 271 278 283 289 294 295 292
5 9 7 11 15 17 22 57 130 161 154 117 58 97 133 145 140 152 169 170 161 159 168 188 185 194 193 195 193 192 191 192 188 191 190 197 201 200 204 216 225 233 248 261 268 274 277 281 284 286 288 293 294 292
341 354 1 8 14 22 30 56 127 146 164 137 139 156 174 186 184 172 195 216 223 217 196 185 175 175 161 184 186 169 172 168 177 188 196 208 223 234 241 247 253 261 267 270 270 269 271 273 281 292 295 298 298 294
319 344 354 6 15 23 32 57 118 95 125 141 148 158 171 178 177 187 195 202 216 239 213 206 201 194 171 159 176 199 217 218 205 198 197 207 217 225 241 263 273 278 281 283 286 291 295 297 300 301 301 297 289 282
318 331 348 3 11 24 44 54 97 106 121 148 176 187 186 190 202 215 222 228 228 229 237 260 308 137 173 132 148 174 191 200 204 212 226 246 264 289 299 301 300 303 305 306 307 306 304 301 296 292 287 284 283 285
312 333 343 346 353 7 36 50 121 105 98 74 88 203 215 226 238 245 247 249 246 246 254 179 182 209 254 266 255 252 247 240 256 277 289 296 301 304 306 309 309 306 304 302 299 297 294 291 286 283 282 284 288 289
315 326 330 333 337 340 186 107 124 100 85 96 96 158 186 185 194 210 227 238 253 267 273 262 258 257 254 257 263 271 276 280 284 286 288 291 296 301 303 301 299 298 298 296 292 290 287 282 282 281 280 280 283 284
309 316 323 327 329 328 246 214 245 301 311 311 308 303 241 237 249 252 255 257 262 262 266 270 269 269 271 273 276 280 285 290 291 293 295 294 292 293 295 296 297 299 297 293 288 286 285 282 277 276 278 282 285 286
307 312 315 319 319 301 265 249 261 277 285 290 295 297 287 274 265 263 263 259 260 259 258 259 262 265 270 276 279 281 282 282 284 288 291 293 295 297 298 297 295 292 288 286 283 279 278 277 277 277 278 279 282 284
307 317 315 296 268 242 259 271 278 283 280 286 284 278 273 271 271 274 278 280 271 264 259 257 259 260 267 276 279 279 281 284 287 290 291 291 291 292 294 294 292 289 287 286 285 284 283 283 284 286 287 287 287 287
311 311 281 275 276 275 285 297 293 262 275 288 278 269 267 230 230 276 284 296 310 249 246 261 268 266 268 270 273 275 278 281 285 289 288 288 292 295 295 294 294 293 292 290 289 288 286 285 285 285 285 286 287 288
286 266 241 258 264 268 265 289 339 355 346 331 268 208 208 234 236 246 252 246 261 263 263 269 282 304 300 291 289 293 294 294 297 301 298 300 301 300 302 304 304 301 298 296 294 294 294 294 293 292 292 292 292 291
251 259 271 273 268 271 273 275 274 279 286 284 247 241 239 226 229 245 241 232 222 179 135 110 96 101 99 83 53 5 329 311 305 302 300 301 303 306 308 310 309 306 303 299 297 295 294 293 292 291 291 291 291 291
304 298 294 287 274 272 270 269 271 271 246 234 234 209 196 203 241 206 170 151 136 130 135 115 91 76 57 26 360 342 331 323 319 316 312 308 307 309 309 308 307 305 303 300 299 298 298 296 294 293 293 292 291 293
335 338 336 312 273 261 258 251 248 228 210 212 217 213 222 208 182 152 147 143 140 122 107 105 87 51 25 11 4 360 353 345 337 331 326 321 317 316 316 316 317 317 314 311 309 307 304 301 298 297 297 296 297 296
351 352 351 354 309 238 237 235 238 225 220 222 219 214 209 204 173 160 155 154 147 136 106 72 35 21 17 13 8 1 354 348 342 335 326 320 317 315 315 319 322 324 325 325 324 323 322 321 318 314 311 306 304 306
1 3 3 3 14 1 318 287 271 227 216 212 211 205 194 176 169 165 158 145 130 128 137 134 38 28 22 14 7 2 358 353 348 343 339 334 329 327 330 334 337 341 343 346 350 352 355 357 356 354 352 350 347 345
1 10 21 33 42 43 37 49 83 156 179 198 198 187 173 165 169 166 155 144 140 116 82 37 13 11 6 2 360 359 357 356 354 348 343 341 338 337 336 336 339 343 348 354 0 3 5 4 3 1 358 354 350 349
345 11 38 58 70 66 62 62 61 65 118 178 177 165 159 164 170 171 169 168 155 117 43 10 3 356 351 350 352 354 353 354 355 353 349 348 345 345 344 347 349 349 351 352 352 352 353 351 350 352 355 359 3 6
Height
2950 2947 2942 2935 2927 2917 2910 2908 2909 2916 2927 2937 2947 2958 2969 2983 2995 3004 3012 3018 3024 3028 3032 3035 3038 3039 3041 3043 3045 3047 3048 3047 3048 3048 3048 3048 3047 3046 3045 3045 3045 3045 3044 3043 3042 3042 3044 3043 3045 3046 3047 3048 3049 3050
2943 2938 2931 2921 2910 2894 2881 2872 2871 2879 2901 2916 2932 2944 2957 2972 2984 2993 3002 3009 3015 3021 3025 3029 3031 3033 3036 3038 3041 3041 3043 3044 3044 3045 3046 3046 3046 3045 3045 3045 3044 3045 3044 3044 3045 3044 3043 3044 3045 3046 3047 3048 3048 3049
2936 2931 2922 2913 2897 2881 2873 2858 2854 2867 2888 2904 2919 2928 2946 2964 2975 2983 2995 3000 3007 3013 3019 3022 3024 3028 3030 3033 3036 3038 3039 3040 3041 3042 3042 3043 3043 3043 3043 3043 3043 3043 3043 3043 3044 3043 3043 3044 3044 3044 3044 3045 3045 3045
2930 2924 2917 2907 2894 2882 2876 2871 2874 2882 2891 2901 2912 2927 2945 2958 2962 2974 2986 2994 3000 3006 3010 3015 3018 3021 3024 3028 3030 3033 3034 3036 3037 3037 3038 3038 3039 3039 3038 3039 3040 3041 3040 3040 3040 3041 3041 3041 3041 3041 3041 3041 3041 3041
2925 2921 2915 2905 2896 2883 2879 2882 2887 2890 2897 2906 2913 2929 2943 2953 2952 2969 2979 2986 2992 3000 3003 3009 3012 3015 3018 3022 3025 3027 3029 3031 3032 3033 3033 3034 3033 3035 3034 3033 3034 3035 3035 3034 3035 3036 3036 3037 3037 3037 3037 3036 3036 3037
2923 2919 2914 2905 2898 2888 2883 2884 2888 2896 2905 2911 2921 2929 2939 2939 2947 2963 2973 2981 2987 2990 2998 3003 3007 3010 3013 3017 3020 3023 3025 3026 3027 3028 3028 3027 3028 3031 3028 3027 3028 3030 3030 3030 3032 3032 3032 3031 3031 3031 3031 3031 3032 3032
2922 2917 2913 2907 2899 2893 2888 2890 2893 2890 2905 2916 2924 2928 2942 2948 2950 2955 2966 2975 2982 2988 2994 3000 3001 3005 3008 3012 3015 3018 3019 3021 3022 3021 3020 3022 3022 3024 3021 3021 3022 3024 3026 3026 3026 3026 3027 3027 3026 3026 3026 3026 3026 3026
2921 2916 2911 2906 2899 2894 2892 2895 2896 2905 2910 2911 2920 2930 2939 2944 2949 2955 2962 2971 2978 2983 2990 2994 2996 3001 3004 3007 3010 3013 3013 3014 3013 3013 3012 3013 3015 3015 3012 3013 3015 3016 3018 3019 3020 3020 3022 3022 3021 3021 3021 3021 3021 3020
2920 2917 2912 2908 2904 2899 2896 2897 2902 2907 2910 2908 2918 2929 2939 2944 2947 2953 2963 2968 2974 2983 2984 2987 2992 2997 2999 3002 3005 3007 3006 3006 3005 3004 3006 3008 3005 3005 3005 3007 3009 3010 3012 3013 3015 3016 3016 3016 3016 3016 3016 3016 3015 3015
2920 2917 2913 2909 2906 2902 2898 2900 2903 2905 2910 2915 2924 2930 2936 2942 2948 2955 2961 2963 2969 2973 2977 2981 2987 2991 2996 2998 2999 3003 3000 3001 2998 3000 3000 2998 2996 2999 3000 3001 3004 3005 3005 3007 3008 3009 3010 3011 3011 3011 3010 3010 3009 3009
2920 2917 2914 2911 2909 2905 2902 2901 2902 2905 2910 2915 2920 2927 2933 2940 2946 2952 2957 2960 2963 2967 2968 2972 2978 2982 2987 2991 2995 2997 2995 2996 2994 2995 2997 2992 2991 2993 2993 2995 2996 2997 2999 3000 3001 3003 3005 3006 3006 3005 3004 3003 3003 3003
2921 2917 2915 2912 2910 2908 2906 2904 2903 2906 2909 2914 2917 2923 2930 2936 2941 2945 2949 2954 2956 2961 2962 2965 2970 2976 2980 2985 2988 2989 2991 2992 2990 2991 2990 2985 2987 2989 2990 2991 2992 2993 2994 2996 2998 3000 3000 3001 3000 3000 3000 3000 3000 2999
2921 2919 2917 2915 2913 2911 2910 2909 2908 2908 2910 2913 2918 2922 2926 2930 2933 2936 2941 2944 2950 2950 2953 2957 2964 2970 2974 2979 2981 2982 2982 2984 2983 2983 2982 2981 2983 2985 2986 2987 2988 2990 2992 2993 2995 2996 2996 2996 2996 2996 2996 2996 2996 2996
2923 2921 2920 2918 2916 2914 2913 2913 2913 2913 2915 2916 2919 2923 2926 2927 2929 2932 2934 2940 2943 2947 2951 2956 2959 2963 2967 2970 2973 2974 2974 2976 2976 2975 2975 2978 2980 2981 2983 2984 2986 2987 2988 2990 2991 2992 2992 2992 2992 2993 2993 2993 2992 2992
2925 2924 2922 2920 2919 2917 2916 2916 2916 2918 2918 2920 2922 2924 2925 2926 2927 2930 2933 2938 2942 2946 2950 2953 2956 2960 2961 2964 2965 2966 2968 2968 2968 2968 2971 2973 2975 2977 2980 2981 2983 2984 2985 2987 2987 2988 2989 2989 2989 2989 2989 2988 2988 2987
2926 2925 2924 2922 2920 2919 2917 2917 2917 2919 2921 2923 2924 2924 2927 2928 2929 2932 2934 2938 2941 2944 2948 2952 2953 2955 2956 2958 2959 2960 2962 2962 2964 2966 2969 2972 2973 2975 2977 2978 2980 2981 2982 2982 2983 2983 2984 2984 2984 2984 2983 2982 2981 2980
2926 2925 2924 2923 2922 2920 2919 2918 2919 2920 2923 2924 2925 2926 2928 2930 2931 2933 2935 2937 2939 2943 2947 2948 2950 2952 2954 2955 2956 2957 2958 2960 2961 2964 2967 2970 2972 2974 2975 2975 2976 2977 2977 2978 2978 2978 2978 2979 2978 2978 2977 2975 2974 2972
2926 2926 2925 2924 2923 2921 2920 2919 2919 2920 2922 2924 2925 2927 2929 2931 2932 2934 2936 2938 2941 2942 2945 2947 2949 2951 2952 2953 2955 2956 2957 2959 2961 2963 2964 2966 2968 2970 2971 2972 2973 2973 2973 2973 2972 2972 2972 2972 2970 2969 2967 2966 2964 2963
2926 2926 2925 2924 2923 2923 2922 2923 2922 2922 2925 2926 2927 2928 2930 2931 2932 2934 2936 2938 2940 2942 2945 2946 2948 2949 2952 2954 2955 2956 2957 2958 2960 2962 2963 2965 2966 2967 2967 2967 2967 2966 2965 2964 2963 2962 2961 2960 2959 2957 2956 2955 2954 2953
2926 2926 2925 2925 2924 2924 2924 2924 2925 2926 2927 2928 2927 2928 2930 2931 2932 2933 2935 2937 2939 2941 2944 2947 2948 2949 2950 2952 2954 2955 2956 2957 2958 2959 2960 2959 2960 2961 2960 2960 2958 2957 2956 2954 2953 2952 2951 2950 2949 2948 2947 2946 2946 2945
2926 2926 2925 2925 2925 2925 2925 2925 2925 2926 2927 2928 2928 2929 2931 2932 2932 2933 2934 2936 2939 2940 2942 2944 2946 2947 2948 2949 2950 2950 2951 2952 2952 2953 2954 2954 2953 2953 2953 2951 2950 2949 2948 2947 2946 2944 2943 2942 2942 2941 2940 2939 2938 2938
2925 2925 2924 2923 2923 2923 2923 2924 2925 2925 2927 2927 2929 2930 2930 2931 2931 2932 2933 2935 2936 2939 2941 2942 2942 2943 2943 2943 2944 2944 2945 2945 2944 2944 2944 2945 2945 2944 2943 2943 2942 2941 2940 2938 2937 2937 2936 2935 2935 2934 2933 2932 2931 2930
2924 2923 2922 2921 2921 2921 2923 2922 2923 2923 2924 2924 2925 2926 2926 2926 2927 2928 2929 2932 2934 2936 2936 2937 2937 2937 2937 2937 2937 2938 2938 2939 2938 2938 2938 2937 2936 2936 2936 2935 2935 2934 2933 2932 2931 2930 2929 2928 2927 2926 2925 2924 2923 2922
2922 2921 2920 2919 2919 2919 2920 2920 2920 2921 2921 2922 2922 2922 2923 2924 2924 2925 2925 2927 2927 2928 2929 2930 2931 2931 2932 2932 2932 2933 2933 2932 2932 2932 2932 2931 2930 2929 2929 2929 2928 2927 2927 2925 2924 2922 2921 2920 2919 2918 2917 2915 2914 2912
2922 2921 2919 2917 2917 2918 2917 2917 2918 2918 2918 2919 2919 2920 2920 2921 2922 2923 2923 2924 2924 2925 2926 2926 2927 2927 2928 2928 2928 2928 2928 2928 2927 2927 2927 2926 2925 2924 2924 2923 2922 2921 2920 2918 2916 2915 2913 2912 2910 2909 2907 2905 2904 2902
2918 2917 2917 2916 2916 2917 2917 2917 2917 2918 2918 2918 2918 2919 2919 2920 2921 2921 2921 2922 2923 2924 2924 2924 2925 2925 2926 2926 2925 2925 2925 2925 2925 2924 2923 2922 2921 2920 2919 2917 2915 2914 2912 2910 2908 2906 2904 2902 2900 2898 2896 2894 2892 2891
2916 2915 2915 2915 2915 2915 2916 2916 2916 2916 2917 2917 2917 2918 2919 2919 2919 2919 2919 2920 2921 2922 2923 2924 2924 2925 2926 2926 2925 2925 2924 2924 2923 2922 2920 2919 2918 2916 2914 2912 2910 2908 2905 2903 2900 2898 2896 2894 2892 2889 2888 2886 2883 2882
2914 2913 2913 2913 2912 2912 2912 2912 2912 2912 2913 2914 2916 2916 2917 2917 2918 2918 2919 2920 2921 2923 2923 2924 2925 2926 2925 2925 2924 2923 2923 2921 2920 2918 2916 2915 2913 2911 2909 2907 2904 2902 2899 2896 2893 2890 2888 2886 2883 2881 2879 2878 2876 2873
2913 2911 2910 2908 2907 2907 2907 2908 2909 2909 2911 2912 2913 2914 2915 2916 2916 2917 2919 2921 2922 2923 2924 2925 2926 2926 2925 2924 2923 2922 2920 2918 2916 2913 2911 2909 2907 2905 2902 2900 2898 2895 2893 2890 2886 2884 2881 2879 2876 2874 2872 2870 2868 2867
2912 2910 2908 2906 2904 2904 2905 2905 2906 2907 2908 2910 2911 2913 2914 2915 2916 2918 2920 2922 2923 2924 2925 2925 2925 2925 2923 2922 2920 2919 2917 2915 2913 2911 2908 2906 2904 2901 2898 2896 2893 2890 2887 2884 2881 2878 2875 2872 2870 2868 2867 2865 2864 2862
2912 2910 2908 2905 2904 2904 2904 2903 2903 2903 2905 2907 2909 2911 2912 2914 2917 2919 2921 2923 2924 2924 2925 2926 2925 2924 2923 2922 2920 2918 2915 2913 2910 2907 2904 2901 2899 2896 2894 2891 2888 2886 2883 2881 2878 2875 2872 2870 2868 2866 2864 2863 2861 2860
2912 2911 2910 2907 2906 2905 2904 2903 2902 2903 2904 2906 2908 2910 2912 2914 2918 2920 2922 2923 2924 2925 2925 2925 2924 2923 2922 2921 2919 2917 2914 2911 2908 2904 2901 2898 2894 2892 2890 2888 2886 2883 2881 2879 2877 2875 2873 2870 2868 2866 2865 2863 2861 2860
2912 2912 2911 2910 2909 2908 2908 2907 2906 2905 2905 2906 2907 2909 2913 2916 2919 2921 2922 2923 2924 2924 2924 2924 2923 2922 2921 2919 2917 2915 2912 2909 2905 2902 2898 2895 2892 2890 2888 2886 2884 2882 2880 2879 2876 2874 2872 2870 2868 2866 2864 2862 2861 2859